Regional Weather Roundup
Issued by NWS

Home | Current Version | Previous Version | Text Only | Print | Product List | Glossary On
Versions: 1 2 3 4 5 6 7 8 9 10 11 12 13 14 15 16 17 18 19 20 21 22 23 24 25 26
000
ASUS44 KLIX 120212
RWRLA
LOUISIANA WEATHER ROUNDUP
NATIONAL WEATHER SERVICE NEW ORLEANS LA
800 PM CST MON DEC 11 2017

NOTE: "FAIR" INDICATES FEW OR NO CLOUDS BELOW 12,000 FEET WITH NO
      SIGNIFICANT WEATHER AND/OR OBSTRUCTIONS TO VISIBILITY.
      SKY/WX - SKY CONDITION AND SIGNIFICANT WEATHER.
      TMP - AIR TEMPERATURE.    DP   - DEWPOINT TEMPERATURE.
      RH  - RELATIVE HUMIDITY.  PRES - PRESSURE.
      HX  - HEAT INDEX.         WCI  - WIND CHILL INDEX.

*  THESE STATIONS ARE NOT NWS OR FAA STATIONS AND ARE NOT UNDER
   NWS QUALITY CONTROL.

LAZ040-048-061>063-065-066-069-120300-
SOUTHEAST LOUISIANA

CITY           SKY/WX    TMP DP  RH WIND       PRES   REMARKS
N.O. INTL ARPT PTCLDY    55  47  74 SW9       30.15S
N.O. LAKEFRONT CLEAR     56  47  71 SW15      30.14F
N.O. DOWNTOWN* FAIR      56  44  64 S7        30.16S
RESERVE*       FAIR      53  46  77 W8        30.15S
SLIDELL        CLEAR     55  46  71 SW5       30.13R
BATON ROUGE    CLEAR     55  45  68 SW10      30.14R
BOOTHVILLE     CLEAR     56  47  71 W7        30.18S
BELLE CHASSE   MOCLDY    52  46  80 SW9       30.15F
BOGALUSA*      NOT AVBL
GALLIANO*      CLEAR     51  46  81 SW6       30.18S
NEW ROADS*     FAIR      55  42  63 SW6       30.14R
GONZALES*      FAIR      54  45  71 CALM      30.15R
HAMMOND*       CLEAR     54  43  66 S5        30.13S
HOUMA*         CLEAR     53  47  78 SW6       30.17S
PORT FOURCHON* CLEAR     59  50  72 W8        30.19S

$$

LAZ041-044-053-054-120300-
SOUTHWEST LOUISIANA

CITY           SKY/WX    TMP DP  RH WIND       PRES   REMARKS
LAKE CHARLES   CLEAR     56  48  74 SW9       30.17R
LAFAYETTE      CLEAR     53  48  83 SW8       30.16S
PATTERSON      CLEAR     48  46  93 SW7       30.18S
SALT POINT       N/A     54  51  90 SW6       30.17S
NEW IBERIA     CLEAR     50  44  80 SW6       30.17S
CHENAULT AIRPK NOT AVBL

$$

LAZ027-028-120300-
CENTRAL LOUISIANA

CITY           SKY/WX    TMP DP  RH WIND       PRES   REMARKS
FORT POLK      CLOUDY    58  42  57 CALM      30.13S
ALEXANDRIA INT CLOUDY    54  42  64 SW6       30.10S
ALEXANDRIA     CLOUDY    47  41  80 CALM      30.11S

$$

LAZ001-002-120300-
NORTHWEST LOUISIANA

CITY           SKY/WX    TMP DP  RH WIND       PRES   REMARKS
SHREVEPORT     PTCLDY    58  28  32 SW9       30.07R
BARKSDALE AFB  CLEAR     60  26  27 SW6       30.06S
DTN SHREVEPORT CLEAR     61  27  27 SW7       30.07S

$$

LAZ014-016-120300-
NORTHEAST LOUISIANA

CITY           SKY/WX    TMP DP  RH WIND       PRES   REMARKS
MONROE         CLEAR     51  36  56 SW9       30.06S
TALLULAH       CLEAR     57  40  52 VRB7      30.06S

$$





USA.gov is the U.S. government's official web portal to all federal, state and local government web resources and services.